Upper Headwater ,,,,,,,
2010 draft data set,,,,,,,
,,,,,,,
"Note: This site was shut down and removed on August 20, 2010. rg",,,,,,,
,,,,,,,
,Data missing  before day 173 10:00 AST,,,,,,
,,,,,,,
,,,,,,,
Day of Year,Date Time,Air Temp,Wind Speed,Wind Direction,Peak Gust,Peak Gust Direction,Rainfall 
(AST),(AST),(�C),(m/s),(degrees TN),(m/s),(degrees TN),(mm)
173.42,6/22/2010 10:00,11.9,2.4,16,4.4,260.1,0
173.46,6/22/2010 11:00,12.1,2.4,26,3.7,18.16,0
173.5,6/22/2010 12:00,12.2,3.7,21,5.1,37.55,0
173.54,6/22/2010 13:00,11.9,2.7,25,4.7,353.1,0
173.58,6/22/2010 14:00,12.9,2.5,11,4.4,25.95,0
173.63,6/22/2010 15:00,13,2.6,9,4.6,15.3,0
173.67,6/22/2010 16:00,12.1,3.7,15,5.4,26.42,0
173.71,6/22/2010 17:00,11.2,2.4,21,4,20.82,0
173.75,6/22/2010 18:00,11.6,1.4,49,2.4,36.03,0
173.79,6/22/2010 19:00,11.3,2.8,29,3.6,47.73,0
173.83,6/22/2010 20:00,10,1.7,106,3.2,77.6,0
173.88,6/22/2010 21:00,10.2,1.5,40,3,1.997,0
173.92,6/22/2010 22:00,8.5,1.7,5,2.6,119.5,0
173.96,6/22/2010 23:00,7.9,1,80,1.3,96.6,0
174,6/23/2010 0:00,6.2,0.6,130,1.6,261,0
174.04,6/23/2010 1:00,3.1,1.5,258,2.4,261.9,0
174.08,6/23/2010 2:00,3.5,1.6,247,2.3,285.3,0
174.13,6/23/2010 3:00,6.5,1.6,168,4.3,196.6,0
174.17,6/23/2010 4:00,6.8,1.8,127,4.1,111.8,0
174.21,6/23/2010 5:00,7.7,1.1,101,2,133.8,0
174.25,6/23/2010 6:00,9.5,3.1,154,6.7,193,0
174.29,6/23/2010 7:00,11.3,2.7,98,5.3,51.07,0
174.33,6/23/2010 8:00,12.1,2.1,10,3.4,28.52,0
174.38,6/23/2010 9:00,12.3,2.1,21,3.4,42.31,0
174.42,6/23/2010 10:00,13.4,3.1,62,5,87.1,0
174.46,6/23/2010 11:00,13.5,3.5,80,5.2,87.9,0
174.5,6/23/2010 12:00,12.6,2.5,39,4.4,91.6,0
174.54,6/23/2010 13:00,13.2,3.1,64,4.8,45.92,0
174.58,6/23/2010 14:00,12,2.8,48,4,99.2,0
174.63,6/23/2010 15:00,13.5,2.8,48,4.8,50.57,0
174.67,6/23/2010 16:00,13.2,3.3,55,4.8,74.2,0
174.71,6/23/2010 17:00,13.1,3.5,43,5.2,82.9,0
174.75,6/23/2010 18:00,13.3,2.8,36,5,11.88,0
174.79,6/23/2010 19:00,13.7,2.9,10,4.5,61.31,0
174.83,6/23/2010 20:00,12.8,3.6,62,6.4,89.6,0
174.88,6/23/2010 21:00,11.2,2.7,106,3.8,121.9,0
174.92,6/23/2010 22:00,10.2,1.8,61,2.8,6.941,0
174.96,6/23/2010 23:00,9,1.1,299,1.7,256,0
175,6/24/2010 0:00,3.9,2.3,244,3,236.2,0
175.04,6/24/2010 1:00,3.5,1.7,252,2.7,240.9,0
175.08,6/24/2010 2:00,4.5,2,256,2.9,247.6,0
175.13,6/24/2010 3:00,4.2,2.2,226,2.7,229.6,0
175.17,6/24/2010 4:00,6.6,1.4,275,2.2,290,0
175.21,6/24/2010 5:00,9,2.1,272,2.9,281.7,0
175.25,6/24/2010 6:00,10.7,2.8,275,3.4,274.2,0
175.29,6/24/2010 7:00,10.8,2.5,270,3.3,274.1,0
175.33,6/24/2010 8:00,10.6,2,282,2.8,243.3,0
175.38,6/24/2010 9:00,11.1,2.9,292,3.9,280.1,0
175.42,6/24/2010 10:00,12.1,2.8,284,4.9,323.1,0
175.46,6/24/2010 11:00,11.8,3,321,4.6,321.2,0
175.5,6/24/2010 12:00,12.5,2.7,339,4.5,24.53,0
175.54,6/24/2010 13:00,12.9,2.9,336,5.3,286.2,0
175.58,6/24/2010 14:00,12.8,2.8,355,4.8,348.5,0
175.63,6/24/2010 15:00,13,3.2,327,5.6,297.9,0
175.67,6/24/2010 16:00,12.8,3.4,6,5.1,0.19,0
175.71,6/24/2010 17:00,11.9,3.7,11,5.1,10.27,0
175.75,6/24/2010 18:00,11.3,3.9,15,5.3,15.02,0
175.79,6/24/2010 19:00,10.5,3,22,4.7,27.57,0
175.83,6/24/2010 20:00,10.2,2.8,27,3.8,75,0
175.88,6/24/2010 21:00,8.3,3,94,4,112.4,0
175.92,6/24/2010 22:00,6.9,2.6,119,3.3,127.9,0
175.96,6/24/2010 23:00,6.2,2,106,3,59.27,0
176,6/25/2010 0:00,4.1,1.9,19,2.7,0.381,0
176.04,6/25/2010 1:00,1.4,1.6,253,2.2,249.2,0
176.08,6/25/2010 2:00,1.6,1.2,246,2,239.6,0
176.13,6/25/2010 3:00,3.5,1,249,1.6,260.8,0
176.17,6/25/2010 4:00,6,0.5,269,1.2,86.9,0
176.21,6/25/2010 5:00,6.3,0.5,61,1.1,61.28,0
176.25,6/25/2010 6:00,5.7,1,80,1.8,78.7,0
176.29,6/25/2010 7:00,5.9,0.4,118,0.9,193.8,0
176.33,6/25/2010 8:00,7.9,0.8,334,2.2,274.6,0
176.38,6/25/2010 9:00,8.7,1.8,279,2.7,267,0
176.42,6/25/2010 10:00,9.9,2,277,3.5,322.1,0
176.46,6/25/2010 11:00,10.1,2.2,294,3.6,339.4,0
176.5,6/25/2010 12:00,11.7,3.1,283,4.7,255.1,0
176.54,6/25/2010 13:00,11.7,3,299,5.5,323.1,0
176.58,6/25/2010 14:00,12.1,3.5,303,5.9,259.3,0
176.63,6/25/2010 15:00,12.4,3,309,4.5,338.9,0
176.67,6/25/2010 16:00,11,2.7,357,3.8,32.04,0
176.71,6/25/2010 17:00,9.8,2.2,18,3.4,1.236,0
176.75,6/25/2010 18:00,9.4,2.2,38,3,71.2,0
176.79,6/25/2010 19:00,9.5,0.8,79,2,5.802,0
176.83,6/25/2010 20:00,9.5,1.6,18,3.5,322.5,0
176.88,6/25/2010 21:00,9.1,3.3,4,5,10.56,0
176.92,6/25/2010 22:00,7.6,2.5,41,3.9,347.9,0
176.96,6/25/2010 23:00,4.8,1.8,3,2.6,66.6,0
177,6/26/2010 0:00,3.3,1,324,2,232.8,0
177.04,6/26/2010 1:00,0.4,1.6,245,2.4,232.1,0
177.08,6/26/2010 2:00,-1,1.8,244,2.9,230.1,0
177.13,6/26/2010 3:00,0.8,2.2,239,3.1,241,0
177.17,6/26/2010 4:00,4.3,1.2,272,1.7,292.8,0
177.21,6/26/2010 5:00,5.7,0.8,333,1.8,0,0
177.25,6/26/2010 6:00,5.3,1.6,344,2.9,341,0
177.29,6/26/2010 7:00,5,1.8,327,2.7,278.7,0
177.33,6/26/2010 8:00,6,1.3,310,2.8,16.27,0
177.38,6/26/2010 9:00,5.9,2.2,332,3.9,299.7,0
177.42,6/26/2010 10:00,6.1,2.6,336,4,16.46,0
177.46,6/26/2010 11:00,6.7,2.9,327,4.6,17.03,0
177.5,6/26/2010 12:00,7.2,3.2,316,4.8,313.2,0
177.54,6/26/2010 13:00,7.9,3.1,333,4.8,43.47,0
177.58,6/26/2010 14:00,8.5,3.6,340,4.9,308.1,0
177.63,6/26/2010 15:00,8,3.1,319,4.8,328,0
177.67,6/26/2010 16:00,8,3.4,332,4.8,342.9,0
177.71,6/26/2010 17:00,8.2,3.3,330,5,336.6,0
177.75,6/26/2010 18:00,8.4,2.7,344,4.5,340.9,0
177.79,6/26/2010 19:00,8,3.3,9,4.9,22.63,0
177.83,6/26/2010 20:00,7.2,3.3,20,4.9,31.67,0
177.88,6/26/2010 21:00,6,2.8,9,4.1,351.8,0
177.92,6/26/2010 22:00,5.1,2,3,2.6,45.38,0
177.96,6/26/2010 23:00,4.4,2,16,3.3,34.06,0
178,6/27/2010 0:00,3.2,0.9,14,1.6,323.4,0
178.04,6/27/2010 1:00,2.1,0.9,264,1.6,315.7,0
178.08,6/27/2010 2:00,0.5,1.2,223,1.8,204.3,0
178.13,6/27/2010 3:00,2.9,1.3,244,2.1,47.5,0
178.17,6/27/2010 4:00,2.9,0.6,73,1.4,86.9,0
178.21,6/27/2010 5:00,3.1,1,79,1.7,62.15,0
178.25,6/27/2010 6:00,3.6,1.7,21,2.2,39.31,0
178.29,6/27/2010 7:00,4.1,1.6,22,2,1.428,0
178.33,6/27/2010 8:00,4.9,1.6,34,2.7,28.36,0
178.38,6/27/2010 9:00,5.6,2,32,3.1,77.9,0
178.42,6/27/2010 10:00,6.6,2.6,55,3.6,68.78,0
178.46,6/27/2010 11:00,7.4,2.3,43,4,38.43,0
178.5,6/27/2010 12:00,8.1,3,15,5.2,41.94,0
178.54,6/27/2010 13:00,8.7,3.1,35,4.9,23.3,0
178.58,6/27/2010 14:00,8.8,3.3,53,5.1,30.62,0
178.63,6/27/2010 15:00,8.9,3.5,46,5.6,12.08,0
178.67,6/27/2010 16:00,8.3,3.9,43,5.2,19.69,0
178.71,6/27/2010 17:00,7.7,4,39,5.7,57.54,0
178.75,6/27/2010 18:00,6.4,3,38,4.9,17.98,0.1
178.79,6/27/2010 19:00,6.3,2.6,74,3.8,41.1,0
178.83,6/27/2010 20:00,5.9,2.3,90,4,103.4,0
178.88,6/27/2010 21:00,5.3,2,100,2.9,99.3,0
178.92,6/27/2010 22:00,4.8,1.2,109,1.8,92.6,0
178.96,6/27/2010 23:00,4.7,1.1,116,2.1,14.66,0.2
179,6/28/2010 0:00,4.3,1.1,335,2.1,288,0.1
179.04,6/28/2010 1:00,3.8,0.8,270,1.6,249.5,0
179.08,6/28/2010 2:00,4.3,1.2,231,2,260.2,0
179.13,6/28/2010 3:00,3.1,1.2,311,2.3,296.3,0
179.17,6/28/2010 4:00,3.8,0.7,295,1.7,213.1,0
179.21,6/28/2010 5:00,4.8,1.5,262,4.2,262.8,0
179.25,6/28/2010 6:00,6.6,1.3,96,4.4,61.09,0
179.29,6/28/2010 7:00,7.6,1.4,47,2.4,100.9,0
179.33,6/28/2010 8:00,9,1.4,64,2.4,76,0
179.38,6/28/2010 9:00,10.5,1.9,56,2.8,64.85,0
179.42,6/28/2010 10:00,12.5,1.9,75,3.6,271.7,0
179.46,6/28/2010 11:00,14.5,2.8,198,4.5,241.6,0
179.5,6/28/2010 12:00,14.8,2.6,20,4.8,61.01,0
179.54,6/28/2010 13:00,15,3,8,5.3,10.07,0
179.58,6/28/2010 14:00,14.5,3.7,13,5.9,353.2,0
179.63,6/28/2010 15:00,14.8,2.2,30,3.9,34.6,0
179.67,6/28/2010 16:00,15,2.4,43,4.6,58.74,0
179.71,6/28/2010 17:00,15.7,3.7,44,6.6,55.69,0
179.75,6/28/2010 18:00,15.1,5.1,54,6.6,40.86,0
179.79,6/28/2010 19:00,14.8,5.3,47,6.6,61.6,0
179.83,6/28/2010 20:00,14.2,5.8,56,7.2,60.07,0
179.88,6/28/2010 21:00,13.5,5.2,61,6.7,65.78,0
179.92,6/28/2010 22:00,12.4,2.3,49,5.5,80.3,0
179.96,6/28/2010 23:00,10.4,1.5,128,2.1,147.1,0
180,6/29/2010 0:00,8.9,0.6,242,1.7,225.2,0
180.04,6/29/2010 1:00,5.8,1.5,260,2.2,247.3,0
180.08,6/29/2010 2:00,3.3,2.6,239,3.2,243.3,0
180.13,6/29/2010 3:00,3.4,2.2,246,2.7,239.2,0
180.17,6/29/2010 4:00,5.7,2,248,2.8,246.9,0
180.21,6/29/2010 5:00,11.2,1.2,235,2.2,61.17,0
180.25,6/29/2010 6:00,12.1,0.6,62,1,11.32,0
180.29,6/29/2010 7:00,12.6,0.3,248,0.9,99.6,0
180.33,6/29/2010 8:00,13.6,1.6,55,2.5,324.1,0
180.38,6/29/2010 9:00,15.4,1.7,71,2.8,97,0
180.42,6/29/2010 10:00,15.9,2.5,60,4,26.24,0
180.46,6/29/2010 11:00,16.3,2.3,23,4.1,29.46,0
180.5,6/29/2010 12:00,16.2,3.6,40,5.8,63.2,0
180.54,6/29/2010 13:00,15.6,3.9,58,5.5,50.84,0
180.58,6/29/2010 14:00,16.2,3.7,51,4.9,62.82,0
180.63,6/29/2010 15:00,16.3,3.5,62,4.9,62.72,0
180.67,6/29/2010 16:00,16.1,2.9,58,4.3,61.3,0
180.71,6/29/2010 17:00,14.9,2.7,83,3.6,78.3,0
180.75,6/29/2010 18:00,14.7,1.8,97,3,132.9,0
180.79,6/29/2010 19:00,14.5,2.1,117,3.3,137.4,0
180.83,6/29/2010 20:00,14.4,1.4,100,2.7,113.7,0
180.88,6/29/2010 21:00,13.9,1.5,109,2.4,106.2,0
180.92,6/29/2010 22:00,12.1,2,84,4,192.8,1.4
180.96,6/29/2010 23:00,11.2,1.2,223,2.8,48.02,0
181,6/30/2010 0:00,11.4,1.1,316,2.4,223.1,0
181.04,6/30/2010 1:00,10.6,0.7,21,1.8,270.1,0
181.08,6/30/2010 2:00,9,1.5,257,2.7,247.8,0
181.13,6/30/2010 3:00,6.6,2.5,236,3,234.3,0
181.17,6/30/2010 4:00,7.1,2.7,232,3.2,237.9,0
181.21,6/30/2010 5:00,8.9,1.9,255,2.8,210.1,0
181.25,6/30/2010 6:00,11.3,0.5,294,1.3,304.4,0
181.29,6/30/2010 7:00,12.4,0.4,360,0.9,8.37,0
181.33,6/30/2010 8:00,13.8,1.5,39,2.9,47.35,0
181.38,6/30/2010 9:00,13.6,2.6,56,3.4,0.095,0
181.42,6/30/2010 10:00,15,2,53,3.8,54.18,0
181.46,6/30/2010 11:00,15.2,2.4,355,4.3,41.25,0
181.5,6/30/2010 12:00,15.6,2.7,334,3.9,343.1,0
181.54,6/30/2010 13:00,15.4,3.9,11,5.2,24.71,0
181.58,6/30/2010 14:00,15.4,4.2,20,5.6,4.277,0
181.63,6/30/2010 15:00,15.3,3.8,25,5.3,30.41,0
181.67,6/30/2010 16:00,15.3,3.6,14,5,25.94,0
181.71,6/30/2010 17:00,14.3,3.5,30,4.7,17.11,0
181.75,6/30/2010 18:00,13.9,2.8,21,3.7,18.63,0
181.79,6/30/2010 19:00,13.5,2.4,20,3.2,9.98,0
181.83,6/30/2010 20:00,13.3,2.4,20,3.2,55.32,0
181.88,6/30/2010 21:00,12.9,2.4,29,3.4,76.7,0
181.92,6/30/2010 22:00,12.1,2.1,46,2.6,33.37,0
181.96,6/30/2010 23:00,10.7,1.7,10,2.9,347.4,0
182,7/1/2010 0:00,8.9,1.2,13,2.1,87.8,0
182.04,7/1/2010 1:00,6,1.7,236,2.5,241.7,0
182.08,7/1/2010 2:00,7.5,0.9,299,1.6,315.3,0
182.13,7/1/2010 3:00,6.7,1.9,250,3.1,219.6,0
182.17,7/1/2010 4:00,7,1.4,238,2.4,267.1,0
182.21,7/1/2010 5:00,8.5,1.3,317,2.4,25.97,0
182.25,7/1/2010 6:00,8.8,0.2,144,1.3,255.3,0
182.29,7/1/2010 7:00,9.7,0.4,3,1,59.93,0
182.33,7/1/2010 8:00,10.7,0.6,51,1.3,32.05,0
182.38,7/1/2010 9:00,12.3,1.4,63,2.4,55.35,0
182.42,7/1/2010 10:00,12.7,2,30,3.2,30.8,0
182.46,7/1/2010 11:00,13.7,2.3,43,4.3,44.77,0
182.5,7/1/2010 12:00,14.5,2.5,51,4.2,61.5,0
182.54,7/1/2010 13:00,15.8,2.6,56,4,52.75,0
182.58,7/1/2010 14:00,15.6,2.6,44,4.2,44.47,0
182.63,7/1/2010 15:00,16.1,3.1,34,5.2,18.15,0
182.67,7/1/2010 16:00,16.1,4,42,5.3,61.29,0
182.71,7/1/2010 17:00,16.2,3.7,37,5.3,29.46,0
182.75,7/1/2010 18:00,16,2.6,38,4.9,57.87,0
182.79,7/1/2010 19:00,15.3,2.2,68,3.4,101.1,0
182.83,7/1/2010 20:00,14.3,2.4,84,4,80,0
182.88,7/1/2010 21:00,13.9,1.3,118,2.1,317.5,0
182.92,7/1/2010 22:00,14.1,1.6,312,2.5,309.1,0
182.96,7/1/2010 23:00,12.3,1.2,327,2.5,236.3,0
183,7/2/2010 0:00,9.1,1.4,249,2.2,240.8,0
183.04,7/2/2010 1:00,7,2.1,240,2.8,231.8,0
183.08,7/2/2010 2:00,6.2,2.7,238,3.6,253.6,0
183.13,7/2/2010 3:00,7.3,2.6,239,3.4,235.2,0
183.17,7/2/2010 4:00,9.3,2.1,237,2.9,257.4,0
183.21,7/2/2010 5:00,12,1,283,2,58.5,0
183.25,7/2/2010 6:00,13.4,0.6,79,1.3,131.4,0
183.29,7/2/2010 7:00,14.4,0.8,83,1.6,76.5,0
183.33,7/2/2010 8:00,15,1.2,62,2,74.8,0
183.38,7/2/2010 9:00,15.9,2.3,71,3.8,110.1,0
183.42,7/2/2010 10:00,16.5,2.6,78,4.2,80,0
183.46,7/2/2010 11:00,17.4,2.5,78,5.2,54.16,0
183.5,7/2/2010 12:00,17.3,3.7,62,5.7,3.515,0
183.54,7/2/2010 13:00,15.9,3.7,50,5.2,36.01,0
183.58,7/2/2010 14:00,15.1,3,11,5.6,261.6,0
183.63,7/2/2010 15:00,14.5,4.6,266,5.9,255.6,0
183.67,7/2/2010 16:00,14.7,2.6,314,4.5,79.2,0
183.71,7/2/2010 17:00,14,3.8,171,6.7,230.8,0
183.75,7/2/2010 18:00,14.6,2.9,209,4.6,42.59,0
183.79,7/2/2010 19:00,13.6,2,43,3.7,11.69,0.4
183.83,7/2/2010 20:00,13.3,1.7,51,4.1,5.99,0
183.88,7/2/2010 21:00,14.2,1.3,32,3.1,14.45,0
183.92,7/2/2010 22:00,13.7,2.1,47,3.8,74.8,0
183.96,7/2/2010 23:00,12.5,2,58,3.3,101.5,0
184,7/3/2010 0:00,9.6,1.2,320,2.4,259.4,0
184.04,7/3/2010 1:00,7,1.8,259,2.8,290.6,0
184.08,7/3/2010 2:00,6.3,1.1,275,2.6,245.8,0
184.13,7/3/2010 3:00,6.2,1.8,253,3.1,55.28,0
184.17,7/3/2010 4:00,8,0.9,232,2.7,281.9,0
184.21,7/3/2010 5:00,9.8,1.8,270,4.2,267.3,0
184.25,7/3/2010 6:00,10.8,4.2,265,5.4,257.5,0
184.29,7/3/2010 7:00,11.4,4.5,265,5.8,263.4,0
184.33,7/3/2010 8:00,11.6,3.5,260,4.9,63.33,0
184.38,7/3/2010 9:00,9.4,3.4,85,4.7,121.9,0
184.42,7/3/2010 10:00,9.8,3.3,83,4.9,115.7,0
184.46,7/3/2010 11:00,9.8,3,208,4.8,249.5,0
184.5,7/3/2010 12:00,9.7,3.3,282,5,245.1,0
184.54,7/3/2010 13:00,9.6,4.2,249,5.3,239.5,0
184.58,7/3/2010 14:00,8.1,2.9,285,4.8,299,0
184.63,7/3/2010 15:00,6.7,2.5,299,4.6,267,0
184.67,7/3/2010 16:00,6.7,2.8,274,3.8,257.5,0
184.71,7/3/2010 17:00,7.3,3.4,265,4.8,252.6,0
184.75,7/3/2010 18:00,7.4,3.6,266,5.1,284.3,0
184.79,7/3/2010 19:00,7.3,3.3,276,4.8,286,0
184.83,7/3/2010 20:00,7.1,2.9,280,3.9,270.3,0
184.88,7/3/2010 21:00,7.2,2.3,272,3.2,261.7,0
184.92,7/3/2010 22:00,7.4,2.7,278,3.8,295.7,0
184.96,7/3/2010 23:00,6.7,2.7,271,3.7,258.6,0
185,7/4/2010 0:00,6.3,2.6,273,3.3,271.9,0
185.04,7/4/2010 1:00,5.7,3,258,3.8,235,0
185.08,7/4/2010 2:00,5.3,3,244,3.5,241.3,0
185.13,7/4/2010 3:00,5.8,2.3,253,3.8,273.1,0
185.17,7/4/2010 4:00,6.2,1.6,255,2.5,280.8,0
185.21,7/4/2010 5:00,6.6,0.8,341,1.5,13.04,0
185.25,7/4/2010 6:00,6.7,0.9,46,2.5,288.6,0
185.29,7/4/2010 7:00,7.6,2.5,283,3.5,256.5,0
185.33,7/4/2010 8:00,8,1.8,249,3.2,249.6,0
185.38,7/4/2010 9:00,8.3,1.4,253,3,275.1,0
185.42,7/4/2010 10:00,8.8,1.6,264,3.1,295.3,0
185.46,7/4/2010 11:00,9.5,1.7,262,2.7,231.6,0
185.5,7/4/2010 12:00,10.6,1.7,243,2.8,245.2,0
185.54,7/4/2010 13:00,11.8,1.5,335,3.4,153.1,0
185.58,7/4/2010 14:00,13.4,2.2,61,3.6,35.64,0
185.63,7/4/2010 15:00,14.1,2,12,4,19.86,0
185.67,7/4/2010 16:00,14.8,2.1,319,3.9,285.9,0
185.71,7/4/2010 17:00,15,2.2,351,3.9,316.3,0
185.75,7/4/2010 18:00,15,1.7,24,3,77.7,0
185.79,7/4/2010 19:00,15,2.2,52,4.1,71.7,0
185.83,7/4/2010 20:00,14.6,2.5,78,3.6,66.53,0
185.88,7/4/2010 21:00,13.9,2.4,70,3.7,81.7,0
185.92,7/4/2010 22:00,12.2,1.6,109,2.5,132.8,0
185.96,7/4/2010 23:00,10.9,3.9,190,6.2,216.2,0
186,7/5/2010 0:00,9.6,3.6,221,6.4,248.5,0.7
186.04,7/5/2010 1:00,8.8,1,43,2.1,32.63,0.1
186.08,7/5/2010 2:00,8.1,1.3,52,3.2,323.1,0
186.13,7/5/2010 3:00,7.1,1.1,258,1.5,276.3,0
186.17,7/5/2010 4:00,7.8,0.8,254,1.6,267.5,0
186.21,7/5/2010 5:00,8.1,0.6,248,1.4,352.8,0
186.25,7/5/2010 6:00,8.5,0.6,246,1.3,238.2,0.1
186.29,7/5/2010 7:00,9.7,0.3,91,0.8,27.49,0
186.33,7/5/2010 8:00,9.8,2,23,3.5,343.8,0
186.38,7/5/2010 9:00,9.1,2.9,5,4.7,8.94,0
186.42,7/5/2010 10:00,6.8,2.9,24,4.7,41.57,0.1
186.46,7/5/2010 11:00,5.7,2.2,40,2.8,61.74,1.3
186.5,7/5/2010 12:00,6,2.1,42,2.8,70.3,0.1
186.54,7/5/2010 13:00,6.3,2.1,37,3.3,25.12,0
186.58,7/5/2010 14:00,5.9,2.7,18,3.8,0,0
186.63,7/5/2010 15:00,5.4,2.8,13,3.6,26.36,0
186.67,7/5/2010 16:00,5,3.1,20,4.1,11.7,0.5
186.71,7/5/2010 17:00,4.2,3.1,11,4,23.6,0.6
186.75,7/5/2010 18:00,4.1,2.1,16,2.9,5.234,0.9
186.79,7/5/2010 19:00,3.9,1.8,335,3,292.2,1.4
186.83,7/5/2010 20:00,3.8,2.5,293,3.4,298.2,1.4
186.88,7/5/2010 21:00,3.7,2.6,287,3.5,294.9,2
186.92,7/5/2010 22:00,2.7,1.4,351,2.1,268.5,2.5
186.96,7/5/2010 23:00,2.1,1.2,285,1.8,262.8,1.6
187,7/6/2010 0:00,0.9,1.1,215,1.6,191.4,1.2
187.04,7/6/2010 1:00,0.3,0.4,279,0.9,59.97,0.5
187.08,7/6/2010 2:00,-0.1,0,73,0.4,67.89,0
187.13,7/6/2010 3:00,-0.1,0,0,0,68.36,0
187.17,7/6/2010 4:00,0,0,0,0,68.27,0
187.21,7/6/2010 5:00,0,0,0,0,3.999,0
187.25,7/6/2010 6:00,0.3,0,0,0,235.8,0
187.29,7/6/2010 7:00,0.8,0.1,94,0.5,221.1,1.4
187.33,7/6/2010 8:00,1.5,0.1,167,0.4,134,2.2
187.38,7/6/2010 9:00,1.8,0.2,40,0.7,50.45,2.5
187.42,7/6/2010 10:00,2.2,0.3,119,0.9,96.3,0.4
187.46,7/6/2010 11:00,3.2,0.5,20,1.3,73.6,0
187.5,7/6/2010 12:00,4.4,1.4,257,2.4,288.1,0
187.54,7/6/2010 13:00,6,1.9,266,2.6,299.3,0
187.58,7/6/2010 14:00,7.4,2.3,256,3.2,243.4,0
187.63,7/6/2010 15:00,7.8,2.3,285,3.5,268.9,0
187.67,7/6/2010 16:00,8.3,2.2,282,3.3,305.6,0
187.71,7/6/2010 17:00,8.5,1.2,294,2.7,213,0
187.75,7/6/2010 18:00,9.4,2.2,300,3.2,354.5,0
187.79,7/6/2010 19:00,8.2,3.2,21,4.5,44.42,0
187.83,7/6/2010 20:00,8.1,0.8,84,2.4,115.9,0
187.88,7/6/2010 21:00,7.2,2.3,11,3.8,7.23,0.1
187.92,7/6/2010 22:00,5.4,2.9,3,4.3,14.46,0.6
187.96,7/6/2010 23:00,4.1,1.2,17,2.9,303.4,1.6
188,7/7/2010 0:00,4.3,0.9,219,1.9,246,1
188.04,7/7/2010 1:00,4.9,1.9,256,2.7,245.8,0.7
188.08,7/7/2010 2:00,5.1,2.9,246,3.9,265.7,0.3
188.13,7/7/2010 3:00,5.5,2.1,256,3.3,266.6,0.1
188.17,7/7/2010 4:00,5.8,3.8,255,5.5,262.6,0
188.21,7/7/2010 5:00,6.1,4.4,260,6,256.4,0
188.25,7/7/2010 6:00,6,4.5,260,5.5,266,0
188.29,7/7/2010 7:00,6.1,5.6,254,7.4,251,0
188.33,7/7/2010 8:00,5.7,4.1,260,6.2,237.8,1.3
188.38,7/7/2010 9:00,5.9,3.4,254,4.4,253.9,0.2
188.42,7/7/2010 10:00,6.3,3.2,267,4.5,253.3,0
188.46,7/7/2010 11:00,7.3,4.2,266,6.3,279.2,0
188.5,7/7/2010 12:00,7.1,5.9,281,7.3,277.9,1.2
188.54,7/7/2010 13:00,6.9,6.3,270,7.8,272.4,1.1
188.58,7/7/2010 14:00,6.3,7,286,10.6,244.4,1.1
188.63,7/7/2010 15:00,7.2,6.2,276,9.2,281.1,0
188.67,7/7/2010 16:00,7.6,5.9,274,7.3,285,0.1
188.71,7/7/2010 17:00,7.8,5.8,281,7.6,300.3,0
188.75,7/7/2010 18:00,7.2,5.8,273,7.5,276.5,0.2
188.79,7/7/2010 19:00,7.1,5.9,267,6.7,258.2,0
188.83,7/7/2010 20:00,6.9,6.7,257,8.4,265.9,0
188.88,7/7/2010 21:00,7.6,7.7,261,9.2,268.3,0
188.92,7/7/2010 22:00,7.6,6.5,263,8.9,245.8,0
188.96,7/7/2010 23:00,7.5,4.9,261,6.4,260.4,0
189,7/8/2010 0:00,6.7,3.6,255,4.5,252,0
189.04,7/8/2010 1:00,6.9,1.7,245,2.5,236.4,0
189.08,7/8/2010 2:00,7.1,1.9,252,3.1,264.5,0
189.13,7/8/2010 3:00,7.3,1.8,244,3.5,263.5,0
189.17,7/8/2010 4:00,7.6,2.2,258,3.1,237.5,0
189.21,7/8/2010 5:00,8.4,2.6,245,3.7,229,0
189.25,7/8/2010 6:00,8.5,2.7,226,4,252.8,0
189.29,7/8/2010 7:00,9.2,1.5,237,2.5,258.2,0
189.33,7/8/2010 8:00,10.2,2.1,231,3.6,197.5,0
189.38,7/8/2010 9:00,12.3,3.2,248,4.3,254.2,0
189.42,7/8/2010 10:00,13.5,2.7,266,5.1,252.9,0
189.46,7/8/2010 11:00,15,1,110,2.1,73.1,0
189.5,7/8/2010 12:00,15.9,1.2,60,2.3,64.15,0
189.54,7/8/2010 13:00,16.6,1.3,52,2.6,81.8,0
189.58,7/8/2010 14:00,17.6,1.5,109,2.9,21,0
189.63,7/8/2010 15:00,17.8,1.3,57,2.5,134.6,0
189.67,7/8/2010 16:00,18.9,0.9,339,1.6,196.9,0
189.71,7/8/2010 17:00,19.4,1,89,2.4,21.85,0
189.75,7/8/2010 18:00,19.2,0.9,83,2.1,10.92,0
189.79,7/8/2010 19:00,19.3,1.5,10,2.1,22.32,0
189.83,7/8/2010 20:00,19.1,1.2,23,1.9,21.47,0
189.88,7/8/2010 21:00,18.6,1.1,45,2.2,73.9,0
189.92,7/8/2010 22:00,15.6,1.1,322,2.5,230.6,0
189.96,7/8/2010 23:00,10.3,2.4,236,3.1,230.5,0
190,7/9/2010 0:00,8,3,233,3.5,227.7,0
190.04,7/9/2010 1:00,6.5,2.9,236,3.4,238.1,0
190.08,7/9/2010 2:00,6.4,3,244,3.9,240.3,0
190.13,7/9/2010 3:00,10.6,2.6,251,4,286.9,0
190.17,7/9/2010 4:00,14.7,1.9,226,4.6,226.9,0
190.21,7/9/2010 5:00,15.7,2.7,225,4.4,237.3,0
190.25,7/9/2010 6:00,16,3.1,192,5.2,214.7,0
190.29,7/9/2010 7:00,17.7,4.9,208,6.8,210.4,0
190.33,7/9/2010 8:00,18.8,4.2,208,5.3,202.6,0
190.38,7/9/2010 9:00,20.5,2.1,230,3.4,311.5,0
190.42,7/9/2010 10:00,21.1,1.4,336,2.9,343.9,0
190.46,7/9/2010 11:00,21.4,1.9,7,3.1,18.62,0
190.5,7/9/2010 12:00,21.9,2.3,50,3.6,75.9,0
190.54,7/9/2010 13:00,21.8,2.9,28,4.6,29.06,0
190.58,7/9/2010 14:00,22,2.9,20,4.6,5.508,0
190.63,7/9/2010 15:00,21.2,2.2,37,4,38.75,0
190.67,7/9/2010 16:00,20.3,2.1,4,2.8,341.8,0
190.71,7/9/2010 17:00,18.8,3.6,318,5.3,0,0
190.75,7/9/2010 18:00,20.2,3.3,12,4.7,334.3,0
190.79,7/9/2010 19:00,19.6,3.5,12,5,52.06,0
190.83,7/9/2010 20:00,19.3,2.8,55,4.2,60.91,0
190.88,7/9/2010 21:00,17.2,1.2,86,3.4,154.7,0
190.92,7/9/2010 22:00,16.2,1.2,185,2.9,124.6,0
190.96,7/9/2010 23:00,15.4,1.7,8,3.4,224.6,0
191,7/10/2010 0:00,12.7,2,242,3.2,247.9,0
191.04,7/10/2010 1:00,14.9,2.7,263,5.8,46.11,3.1
191.08,7/10/2010 2:00,13.6,0.9,314,3.1,198.3,0
191.13,7/10/2010 3:00,11.8,1,269,1.7,255.9,0.1
191.17,7/10/2010 4:00,10.9,1.3,258,2.2,233.3,0
191.21,7/10/2010 5:00,13.3,1.1,239,1.7,250.7,0
191.25,7/10/2010 6:00,16.1,0.3,217,0.8,54.95,0
191.29,7/10/2010 7:00,16.8,0.6,80,1.2,93.5,0
191.33,7/10/2010 8:00,16.9,1,50,2.2,17.11,0
191.38,7/10/2010 9:00,17.7,0.8,92,1.8,115.1,0
191.42,7/10/2010 10:00,18.7,2.2,38,3.9,79.6,0
191.46,7/10/2010 11:00,18.7,3.8,24,5.2,351.6,0
191.5,7/10/2010 12:00,18.6,4.2,26,5.3,46.65,0
191.54,7/10/2010 13:00,18.9,4.3,53,5.4,63.66,0
191.58,7/10/2010 14:00,19,4.3,56,5.2,66.98,0
191.63,7/10/2010 15:00,18.7,3.8,47,5.4,64.3,0
191.67,7/10/2010 16:00,18.4,3.9,51,5.3,36.29,0
191.71,7/10/2010 17:00,18,3.9,49,4.8,39.04,0
191.75,7/10/2010 18:00,17.2,3.2,45,4.3,92.7,0
191.79,7/10/2010 19:00,16.3,4.3,212,7.8,217.5,0
191.83,7/10/2010 20:00,17.7,3.1,263,6.4,26.23,0
191.88,7/10/2010 21:00,15.9,2.7,53,4,82.1,0
191.92,7/10/2010 22:00,14.5,2.3,50,3.7,331.1,0
191.96,7/10/2010 23:00,13.6,1.2,204,2.3,110.1,0
192,7/11/2010 0:00,10.7,0.9,84,1.9,13.88,0
192.04,7/11/2010 1:00,7.9,1.8,246,3.2,220.6,0
192.08,7/11/2010 2:00,8.1,2.6,248,3.5,253.3,0
192.13,7/11/2010 3:00,9.4,1,308,2.9,203.8,0
192.17,7/11/2010 4:00,8.9,1.4,251,2.2,11.89,0
192.21,7/11/2010 5:00,9.6,2.4,257,3.4,260.8,0
192.25,7/11/2010 6:00,11.4,3,254,3.8,243.7,0
192.29,7/11/2010 7:00,12.6,2.2,268,3.3,316.6,0
192.33,7/11/2010 8:00,13.1,2.1,260,3.3,254.8,0
192.38,7/11/2010 9:00,14.7,1.7,268,2.8,0,0
192.42,7/11/2010 10:00,15.1,1.6,51,3.5,61.12,0
192.46,7/11/2010 11:00,15.8,1.3,102,2.9,80.9,0
192.5,7/11/2010 12:00,16.4,2.7,24,5.3,63.1,0
192.54,7/11/2010 13:00,16.1,3.5,17,5.1,344.7,0
192.58,7/11/2010 14:00,15.1,4,355,5.2,341.5,0
192.63,7/11/2010 15:00,14,4.3,339,5.8,341,0
192.67,7/11/2010 16:00,12.6,4.2,356,6.8,8.27,0
192.71,7/11/2010 17:00,9,3.9,13,5.4,45.16,0
192.75,7/11/2010 18:00,7.6,3.6,348,5.2,340.4,0
192.79,7/11/2010 19:00,6.9,3.2,338,4.6,9.51,0.4
192.83,7/11/2010 20:00,5.2,2.9,11,4.5,26.07,0.3
192.88,7/11/2010 21:00,4,1.8,57,2.9,138.1,0.6
192.92,7/11/2010 22:00,3.8,0.8,79,1.4,130.9,0.9
192.96,7/11/2010 23:00,3.7,1.4,20,3.6,0,1
193,7/12/2010 0:00,3.1,1.7,350,2.9,301.8,0.8
193.04,7/12/2010 1:00,3,2.5,306,3.5,303.3,1
193.08,7/12/2010 2:00,1.7,3.3,316,5.1,334.2,1
193.13,7/12/2010 3:00,0.7,1.6,298,3.5,291.4,0.3
193.17,7/12/2010 4:00,0.5,1.7,251,2.1,243.5,0.2
193.21,7/12/2010 5:00,0.6,1.9,265,2.6,265.3,0.1
193.25,7/12/2010 6:00,1,2,287,3,285.1,0.2
193.29,7/12/2010 7:00,0.9,3,282,3.8,303,0
193.33,7/12/2010 8:00,0.7,2.2,314,2.9,309,0
193.38,7/12/2010 9:00,1.2,1.2,317,2.4,67.79,0
193.42,7/12/2010 10:00,2.8,1.2,48,2.8,76.8,0
193.46,7/12/2010 11:00,4,1.5,70,2.8,52.62,0
193.5,7/12/2010 12:00,5.3,1.9,46,3.4,61.08,0
193.54,7/12/2010 13:00,6,2,35,3.6,22.45,0
193.58,7/12/2010 14:00,6.7,2.8,8,4.4,30.44,0
193.63,7/12/2010 15:00,6.8,2.8,21,4.5,10.84,0
193.67,7/12/2010 16:00,6.6,3,10,4.4,3.234,0
193.71,7/12/2010 17:00,6.4,3.1,19,4.3,0.666,0
193.75,7/12/2010 18:00,5.9,3.2,23,4,32.34,0
193.79,7/12/2010 19:00,5.6,3.1,19,4.2,0,0
193.83,7/12/2010 20:00,5.6,2.2,15,3.5,24.36,0
193.88,7/12/2010 21:00,5.6,1.1,19,2.1,46.91,0
193.92,7/12/2010 22:00,5.4,1.8,20,2.6,1.142,0
193.96,7/12/2010 23:00,5,2.3,8,3.1,17.03,0
194,7/13/2010 0:00,4.5,1.7,31,2.7,52.24,0
194.04,7/13/2010 1:00,4,1.1,62,1.6,82.9,0
194.08,7/13/2010 2:00,3.4,2,106,2.8,114.9,0
194.13,7/13/2010 3:00,3.3,1.4,51,1.8,39.97,0
194.17,7/13/2010 4:00,3.3,1.2,67,2.5,73.7,0
194.21,7/13/2010 5:00,3.6,1.3,65,2.1,61.1,0
194.25,7/13/2010 6:00,4.3,0.9,46,1.6,30.64,0
194.29,7/13/2010 7:00,4.8,0.6,104,1.2,10.94,0
194.33,7/13/2010 8:00,5.2,0.9,50,1.7,1.142,0
194.38,7/13/2010 9:00,5.4,1.1,12,1.9,317.2,0.1
194.42,7/13/2010 10:00,5.5,2.1,342,2.9,348,0.4
194.46,7/13/2010 11:00,5.7,1.8,342,2.5,322.9,0.1
194.5,7/13/2010 12:00,6.2,2.1,310,3.6,325.4,0
194.54,7/13/2010 13:00,6.5,2.1,321,3.6,302.8,0
194.58,7/13/2010 14:00,7.1,2,348,3.2,24.64,0
194.63,7/13/2010 15:00,7.6,1.8,57,3.1,108,0
194.67,7/13/2010 16:00,8.1,1.7,31,3,88.4,0